Tracking 23731 objects as of 27-Sep-2021
HD Live streaming from Space Station
objects crossing your sky now

STARLINK-2558

Track STARLINK-2558 now!
10-day predictions
STARLINK-2558 is classified as:


NORAD ID: 48282
Int'l Code: 2021-036G
Perigee: 553.0 km
Apogee: 555.7 km
Inclination: 53.1 °
Period: 95.6 minutes
Semi major axis: 6925 km
RCS: Unknown
Launch date: April 29, 2021
Source: United States (US)
Launch site: AIR FORCE EASTERN TEST RANGE (AFETR)
aabbcc
Your satellite tracking list
Your tracking list is empty




NASA's NSSDC Master Catalog

Two Line Element Set (TLE):
1 48282U 21036G   21270.42990876  .00001766  00000-0  13743-3 0  9994
2 48282  53.0616 173.1813 0001967  73.4008 286.7197 15.06400778 23504
Source of the keplerian elements: AFSPC